SCP
0 0 0 0 0 0 0 0 0 0 0 0 0 0 0 0 0 0 0 0 0 0 0 0 0 0 0 0 0 0 0 0 0 0 0 0 0 0 0 0 0 0 0
0 0 0 0 0 0 0 0 0 0 0 0 0 0 0 0 0 0 0 0 0 0 0 0 0 0 0 0 0 0 0 0 0 0 0 0 0 0 0 0 0 0 0
0 0 0 0 0 0 0 0 0 0 0 0 0 0 0 0 0 0 0 0 0 0 0 0 0 0 0 0 0 0 0 0 0 0 0 0 0 0 0 0 0 0 0
0 0 0 0 0 0 0 0 0 0 0 0 0 0 0 0 0 0 0 0 0 0 0 0 0 0 0 0 0 0 0 0 0 0 0 0 0 0 0 0 0 0 0
0 0 0 0 0 0 0 0 0 0 0 0 0 0 0 0 0 0 0 0 0 0 0 0 0 0 0 0 0 0 0 0 0 0 0 0 0 0 0 0 0 0 0
0 0 0 0 0 0 0 0 0 0 0 0 0 0 0 0 0 0 0 0 0 0 0 0 0 0 0 0 0 0 0 0 0 0 0 0 0 0 0 0 0 0 0
0 0 0 0 0 0 0 0 0 0 0 0 0 0 0 0 0 0 0 0 0 0 0 0 0 0 0 0 0 0 0 0 0 0 0 0 0 0 0 0 0 0 0
0 0 0 0 0 0 0 0 0 0 0 0 0 0 0 0 0 0 0 0 0 0 0 0 0 0 0 0 0 0 0 0 0 0 0 0 0 0 0 0 0 0 0
0 0 0 0 0 0 0 0 0 0 0 0 0 0 0 0 0 0 0 0 0 0 0 0 0 0 0 0 0 0 0 0 0 0 0 0 0 0 0 0 0 0 0
0 0 0 0 0 0 0 0 0 0 0 0 0 0 0 0 0 0 0 0 0 0 0 0 0 0 0 0 0 0 0 0 0 0 0 0 0 0 0 0 0 0 0
0 0 0 0 0 0 0 0 0 0 0 0 0 0 0 0 0 0 0 0 0 0 0 0 0 0 0 0 0 0 0 0 0 0 0 0 0 0 0 0 0 0 0
0 0 0 0 0 0 0 0 0 0 0 0 0 0 0 0 0 0 0 0 0 0 0 0 0 0 0 0 0 0 0 0 0 0 0 0 0 0 0 0 0 0 0
0 0 0 0 0 0 0 0 0 0 0 0 0 0 0 0 0 0 0 0 0 0 0 0 0 0 0 0 0 0 0 0 0 0 0 0 0 0 0 0 0 0 0
0 0 0 0 0 0 0 0 0 0 0 0 0 0 0 0 0 0 0 0 0 0 0 0 0 0 0 0 0 0 0 0 0 0 0 0 0 0 0 0 0 0 0
0 0 0 0 0 0 0 0 0 0 0 0 0 0 0 0 0 0 0 0 0 0 0 0 0 0 0 0 0 0 0 0 0 0 0 0 0 0 0 0 0 0 0
0 0 0 0 0 0 0 0 0 0 0 0 0 0 0 0 0 0 0 0 0 0 0 0 0 0 0 0 0 0 0 0 0 0 0 0 0 0 0 0 0 0 0
0 0 0 0 0 0 0 0 0 0 0 0 0 0 0 0 0 0 0 0 0 0 0 0 0 0 0 0 0 0 0 0 0 0 0 0 0 0 0 0 0 0 0
0 0 0 0 0 0 0 0 0 0 0 0 0 0 0 0 0 0 0 0 0 0 0 0 0 0 0 0 0 0 0 0 0 0 0 0 0 0 0 0 0 0 0
0 0 0 0 0 0 0 0 0 0 0 0 0 0 0 0 0 0 0 0 0 0 0 0 0 0 0 0 0 0 0 0 0 0 0 0 0 0 0 0 0 0 0
0 0 0 0 0 0 0 0 0 0 0 0 0 0 0 0 0 0 0 0 0 0 0 0 0 0 0 0 0 0 0 0 0 0 0 0 0 0 0 0 0 0 0
0 0 0 0 0 0 0 0 0 0 0 0 0 0 0 0 0 0 0 0 0 0 0 0 0 0 0 0 0 0 0 0 0 0 0 0 0 0 0 0 0 0 0
0 0 0 0 0 0 0 0 0 0 0 0 0 0 0 0 0 0 0 0 0 0 0 0 0 0 0 0 0 0 0 0 0 0 0 0 0 0 0 0 0 0 0
0 0 0 0 0 0 0 0 0 0 0 0 0 0 0 0 0 0 0 0 0 0 0 0 0 0 0 0 0 0 0 0 0 0 0 0 0 0 0 0 0 0 0
0 0 0 0 0 0 0 0 0 0 0 0 0 0 0 0 0 0 0 0 0 0 0 0 0 0 0 0 0 0 0 0 0 0 0 0 0 0 0 0 0 0 0
0 0 0 0 0 0 0 0 0 0 0 0 0 0 0 0 0 0 0 0 0 0 0 0 0 0 0 0 0 0 0 0 0 0 0 0 0 0 0 0 0 0 0
0 0 0 0 0 0 0 0 0 0 0 0 0 0 0 0 0 0 0 0 0 0 0 0 0 0 0 0 0 0 0 0 0 0 0 0 0 0 0 0 0 0 0
Wind_Speed
2 2 1 2 2 2 2 3 4 5 5 5 5 5 4 4 4 4 3 8 10 10 11 11 11 11 11 11 11 11 11 11 11 10 10 10 10 9 9 9 8 8 7
3 3 2 2 2 2 2 3 4 4 3 4 4 4 4 4 4 4 3 5 9 10 10 10 10 11 11 11 11 11 11 11 10 10 10 10 9 9 9 9 8 7 7
4 3 3 2 2 2 3 3 4 4 4 4 4 3 3 3 3 4 4 3 4 7 9 9 10 10 10 10 11 11 10 10 10 10 10 10 9 9 8 9 8 8 8
4 3 3 2 2 3 3 3 3 3 3 3 2 2 2 2 3 3 3 3 3 3 5 8 9 9 9 9 9 9 10 10 10 10 10 10 9 9 9 9 9 8 8
4 4 3 2 3 3 2 3 3 3 3 2 2 2 2 2 2 3 3 2 2 2 2 4 7 7 7 7 8 8 9 9 9 9 9 9 9 9 9 9 9 9 9
4 4 3 3 3 3 2 3 3 2 2 1 3 3 2 2 2 2 2 2 2 2 2 3 3 3 5 6 6 7 7 7 8 8 8 8 8 8 9 9 9 9 9
3 4 3 3 3 3 3 3 3 3 2 1 3 3 3 3 3 2 2 2 2 1 2 2 2 2 2 5 5 6 6 6 6 6 7 7 7 8 8 8 8 9 9
3 3 4 3 3 3 3 3 2 2 1 1 2 2 2 3 3 2 2 1 1 1 2 2 2 2 2 2 3 5 5 5 5 5 5 5 6 7 7 7 7 7 8
2 3 4 3 3 3 3 2 2 3 1 0 1 3 3 2 1 2 2 1 1 1 1 1 1 1 2 1 1 3 4 4 4 4 4 4 5 5 5 5 6 6 6
2 2 3 4 3 2 3 2 2 2 3 1 0 1 2 4 3 0 2 2 1 1 0 1 1 1 1 1 1 2 3 3 3 3 3 3 3 4 4 5 5 5 5
1 2 2 3 3 2 2 2 2 2 2 2 2 1 1 1 2 3 1 2 2 1 0 1 1 0 1 1 1 1 3 2 2 2 2 3 3 3 4 4 4 4 4
1 1 2 2 2 2 2 2 2 3 2 2 2 2 2 2 2 2 2 1 1 2 1 0 0 0 0 1 1 2 2 1 1 1 1 2 2 3 3 3 3 3 4
2 2 2 2 2 2 2 2 2 2 2 2 2 2 2 2 3 3 3 2 1 1 1 1 1 0 1 1 1 2 1 1 1 1 2 2 2 3 3 3 3 3 3
3 3 3 3 2 2 2 2 1 2 1 2 2 2 2 2 2 3 4 3 2 1 1 2 1 1 1 1 1 1 0 1 1 1 2 3 3 2 3 3 2 2 2
3 3 3 3 3 3 2 3 2 1 1 2 2 2 2 1 2 2 3 4 4 2 2 2 2 1 1 1 1 1 0 1 1 1 2 3 3 2 2 2 2 1 1
2 3 3 3 2 2 2 2 1 1 2 1 1 2 1 1 1 1 2 2 3 4 3 3 3 2 2 2 2 1 1 1 1 1 2 2 2 2 3 2 2 2 2
3 3 4 3 3 2 2 2 1 2 2 1 1 1 1 1 1 1 2 2 2 3 3 2 1 1 1 1 1 1 1 1 1 2 2 2 2 3 3 3 3 3 2
2 3 3 3 3 3 2 3 2 2 2 2 2 2 1 1 2 1 2 2 2 2 3 2 1 1 2 2 1 1 1 1 1 2 3 3 3 3 3 3 4 3 3
1 2 2 3 3 3 3 3 3 3 3 3 3 3 2 2 2 1 2 2 2 2 2 2 2 1 1 1 1 0 0 0 1 2 3 3 3 4 4 3 3 3 4
2 2 2 2 3 3 3 3 3 3 2 2 3 3 2 3 4 3 2 2 2 2 2 2 1 1 1 1 1 1 0 1 1 1 1 2 3 4 4 4 4 3 4
1 1 2 1 1 2 3 3 3 3 2 2 2 2 3 3 4 3 3 3 3 2 2 2 1 1 1 1 2 2 2 1 1 1 0 1 1 1 2 4 5 5 5
1 1 1 1 1 1 2 3 3 3 3 3 2 2 2 3 3 3 4 4 5 4 4 3 3 3 3 3 2 2 2 1 2 2 1 2 1 2 3 2 4 6 6
1 1 0 1 0 1 1 1 3 2 2 2 3 2 2 2 3 2 2 3 4 6 7 6 5 5 4 5 4 3 3 3 3 2 2 2 1 3 3 4 6 7 7
1 1 0 0 0 1 1 1 1 2 2 2 3 3 3 3 2 3 2 2 2 3 5 4 5 5 5 5 5 5 5 2 1 1 2 2 2 2 3 3 6 8 8
0 0 0 0 1 1 1 1 1 1 1 2 3 3 3 3 4 4 3 2 2 3 4 4 4 4 4 4 4 3 2 2 1 2 2 2 2 1 2 3 4 6 7
1 0 0 0 1 1 2 2 1 1 1 2 2 2 3 4 4 4 4 3 3 4 2 2 2 3 3 3 5 5 5 4 2 2 2 2 2 1 2 2 2 2 3
Wind_Direction
119 101 85 73 71 66 72 69 68 72 72 72 74 75 67 63 58 51 51 71 75 78 81 84 83 83 82 80 78 78 78 75 74 74 73 74 73 72 74 76 80 84 94
128 116 100 85 73 74 80 85 84 83 76 78 74 71 69 68 65 59 47 56 66 73 75 78 81 84 84 83 80 77 77 76 75 74 74 74 74 73 73 75 79 84 91
127 120 107 93 87 85 87 86 77 72 75 75 69 64 67 67 71 61 51 42 47 65 74 79 81 84 85 85 83 81 80 78 76 75 73 73 74 76 75 76 78 81 85
121 115 109 104 97 89 88 91 85 80 70 70 67 52 55 63 70 69 59 50 40 46 63 77 78 80 85 87 85 85 83 79 78 76 74 71 73 74 75 75 78 83 84
120 117 114 113 101 87 85 99 84 96 92 83 84 65 49 53 58 75 67 61 54 55 51 68 73 73 80 86 86 88 85 81 78 77 77 75 74 74 74 74 76 78 80
121 118 117 116 107 96 87 91 94 78 97 109 85 65 41 36 41 52 62 65 62 71 64 57 49 52 65 76 81 87 88 83 81 79 78 78 77 74 74 74 76 76 75
127 126 129 120 114 114 122 116 107 88 70 94 80 46 20 25 32 30 30 60 67 69 73 69 55 41 37 54 70 84 89 87 89 86 82 79 78 76 75 75 75 74 73
133 137 138 137 131 123 118 119 119 111 85 96 117 96 34 4 359 10 19 51 58 72 84 92 74 65 51 33 43 68 81 89 91 90 89 87 87 84 80 79 79 79 77
132 139 146 137 141 140 144 151 146 139 148 8 134 141 140 195 305 334 348 19 41 71 73 97 95 88 82 57 27 45 68 78 90 95 97 98 97 94 88 83 82 86 85
127 136 144 142 147 146 148 164 150 149 146 164 244 121 151 154 152 305 335 349 10 62 78 106 102 106 98 87 72 74 73 67 82 92 98 107 112 107 101 96 91 91 95
143 153 148 147 153 154 164 166 152 155 161 166 173 150 105 90 116 139 228 321 352 339 299 145 129 115 113 120 124 103 87 71 67 77 96 105 118 120 115 111 106 105 105
192 179 152 152 161 163 173 175 169 164 177 171 168 159 153 150 162 146 163 207 279 305 329 2 138 158 145 135 152 120 118 115 103 94 111 127 144 145 128 120 113 114 119
194 200 173 171 179 182 175 163 166 181 179 174 178 182 173 175 161 148 142 160 188 313 348 340 269 189 175 148 195 164 159 151 135 127 148 145 145 162 147 131 117 112 112
200 192 181 178 184 184 176 167 166 197 181 184 186 177 168 188 167 160 156 146 122 349 338 290 309 239 214 188 224 202 198 183 147 137 141 142 139 136 136 131 128 115 105
198 183 174 172 181 185 181 171 174 197 175 180 184 176 170 188 175 175 160 152 148 162 249 259 263 253 214 191 223 182 233 250 198 157 145 140 142 142 137 139 144 137 145
195 168 173 177 180 183 178 166 182 200 157 178 180 171 173 179 170 155 159 157 151 155 196 236 231 233 206 201 210 187 209 238 242 197 161 155 165 172 167 177 184 183 185
188 179 178 173 171 172 164 155 179 163 169 187 187 174 199 167 149 157 141 140 148 145 164 240 242 232 179 192 204 173 195 227 280 226 187 189 205 213 202 203 204 200 203
188 186 174 164 170 171 165 162 177 173 176 183 188 167 197 157 150 154 145 156 161 160 153 191 229 219 206 199 185 180 201 211 212 223 210 213 221 230 223 216 213 211 214
171 173 170 173 181 180 175 181 184 185 190 193 185 177 194 160 173 177 169 171 171 159 147 159 204 218 228 181 132 250 216 293 239 228 222 229 232 232 225 221 217 213 216
170 158 166 184 190 193 184 182 182 187 193 201 195 190 193 186 194 195 186 189 173 151 146 151 170 219 225 215 141 182 269 285 263 248 242 235 233 237 235 231 226 222 223
172 162 149 163 183 194 199 192 193 191 191 207 216 210 207 200 198 196 189 185 170 163 158 163 178 173 212 190 206 197 201 236 283 239 226 261 238 250 246 241 234 231 225
71 116 151 169 191 225 203 192 187 196 194 197 216 230 223 207 212 212 210 193 180 178 182 180 191 202 220 212 198 186 172 162 265 253 175 257 204 236 248 235 233 226 221
75 61 59 115 169 258 240 181 195 186 192 207 211 216 228 217 203 202 226 225 219 212 197 190 197 211 208 206 186 185 190 194 217 211 156 247 242 247 252 243 238 232 228
146 153 204 160 161 296 264 222 210 186 187 214 217 211 212 232 217 189 188 200 231 233 219 208 210 218 211 199 191 194 194 191 250 232 153 211 239 249 266 254 249 237 232
241 234 189 164 160 306 321 272 217 194 218 242 242 227 215 216 222 190 177 202 239 265 248 226 224 228 224 200 174 144 144 147 232 244 187 187 225 252 272 264 260 245 234
210 226 333 301 223 259 287 284 254 196 222 251 259 252 240 226 229 202 190 196 224 249 253 257 255 266 243 216 193 187 184 181 196 233 206 183 205 174 283 282 269 259 245